Wetbulb
37.30 36.46 35.74 35.10 34.52 34.12 33.71 33.62 33.53 33.15 32.76 32.42 32.56 32.31 31.68 31.29 30.99 31.43 30.15 29.35 29.52 30.11
35.36 35.24 34.35 33.79 33.67 33.20 33.25 35.58 32.74 32.21 31.80 31.57 31.56 31.44 30.71 29.86 29.74 29.72 29.52 29.20 28.98 28.83
33.81 33.61 33.08 32.87 32.24 32.26 32.24 32.32 31.95 31.58 31.16 30.92 30.77 30.69 29.91 29.51 30.17 29.35 29.22 30.81 28.04 27.83
32.55 32.50 32.15 31.89 31.50 31.54 31.41 31.27 31.17 31.06 30.66 30.41 30.34 30.23 29.16 28.91 29.49 29.08 28.50 27.95 28.04 28.33
32.02 31.67 31.16 30.94 30.98 31.21 30.59 30.83 30.59 30.53 30.43 30.28 30.26 29.80 28.73 28.23 28.70 28.02 27.33 27.46 27.48 27.89
30.90 30.64 30.21 30.32 30.73 31.07 30.61 30.24 30.32 30.52 30.12 30.05 30.27 29.48 29.37 28.66 28.30 27.91 27.59 27.51 27.40 27.80
30.16 30.04 30.04 30.47 30.68 30.86 30.74 30.15 30.08 29.93 29.48 29.50 29.30 29.74 29.64 29.38 28.39 27.89 28.38 28.38 28.42 27.93
30.22 30.38 30.51 30.68 30.69 30.49 30.18 29.76 29.12 28.84 28.61 28.50 29.30 31.79 31.91 31.43 29.32 27.71 26.93 27.22 27.74 28.54
30.63 30.56 30.65 30.39 29.74 29.22 28.97 28.09 27.80 27.09 27.10 26.96 30.15 34.56 36.11 34.52 30.20 27.49 26.06 25.77 27.01 27.80
30.74 30.25 30.09 29.41 28.78 27.63 26.42 26.31 26.19 26.13 25.79 25.22 25.41 34.34 34.98 35.24 30.37 26.96 26.05 25.59 26.44 27.75
30.53 29.65 28.97 28.11 26.46 25.41 25.89 25.70 25.62 25.24 24.96 24.07 26.75 33.07 33.93 34.51 27.92 25.84 25.64 26.20 26.48 26.24
29.57 28.30 26.93 25.68 24.92 25.19 25.10 24.79 24.27 24.54 24.05 22.84 23.28 31.57 33.02 32.03 27.43 26.65 26.06 26.95 26.99 27.48
27.90 26.92 25.36 24.61 24.63 24.80 24.05 23.92 24.44 24.35 23.46 26.42 22.52 29.08 32.39 31.60 27.92 25.46 26.01 26.76 27.59 31.73
26.78 25.76 25.04 24.28 24.04 23.63 23.03 22.86 22.03 21.91 21.78 21.76 23.08 24.01 31.93 32.61 29.06 27.54 27.26 27.43 28.21 28.56
MSLP
1014.60 1015.19 1015.77 1016.15 1016.55 1016.96 1017.21 1017.37 1017.46 1017.47 1017.47 1017.40 1017.22 1017.09 1017.00 1016.91 1016.75 1016.53 1016.40 1016.19 1015.93 1015.71
1014.91 1015.37 1016.03 1016.43 1016.70 1017.01 1017.21 1017.31 1017.39 1017.44 1017.47 1017.34 1017.17 1017.13 1017.02 1016.86 1016.66 1016.38 1016.09 1015.92 1015.66 1015.49
1015.32 1015.75 1016.26 1016.60 1016.98 1017.18 1017.33 1017.40 1017.48 1017.52 1017.40 1017.31 1017.19 1017.04 1016.88 1016.70 1016.42 1016.22 1015.92 1015.61 1015.48 1015.23
1015.78 1016.18 1016.61 1016.93 1017.17 1017.31 1017.48 1017.57 1017.57 1017.51 1017.45 1017.35 1017.07 1016.89 1016.74 1016.50 1016.18 1015.99 1015.67 1015.32 1015.15 1015.00
1016.16 1016.57 1016.95 1017.24 1017.36 1017.50 1017.54 1017.59 1017.60 1017.60 1017.42 1017.20 1017.00 1016.77 1016.54 1016.30 1015.95 1015.71 1015.42 1015.04 1014.91 1014.77
1016.66 1016.93 1017.27 1017.41 1017.48 1017.48 1017.58 1017.70 1017.69 1017.58 1017.38 1017.17 1016.87 1016.59 1016.23 1016.00 1015.66 1015.27 1014.89 1014.69 1014.61 1014.36
1016.91 1017.20 1017.37 1017.45 1017.53 1017.66 1017.78 1017.77 1017.67 1017.53 1017.38 1017.16 1016.86 1016.41 1015.96 1015.60 1015.13 1014.76 1014.52 1014.30 1014.08 1013.80
1017.07 1017.28 1017.41 1017.60 1017.73 1017.85 1017.89 1017.86 1017.77 1017.56 1017.34 1017.03 1016.72 1016.11 1015.61 1015.08 1014.67 1014.42 1014.16 1013.86 1013.57 1013.15
1017.18 1017.37 1017.65 1017.78 1017.90 1017.94 1017.92 1017.90 1017.77 1017.64 1017.41 1017.05 1016.60 1016.01 1015.33 1014.76 1014.27 1013.96 1013.79 1013.50 1013.06 1012.61
1017.27 1017.62 1017.82 1017.96 1017.99 1018.04 1018.16 1018.05 1017.88 1017.67 1017.39 1017.03 1016.50 1015.78 1015.15 1014.51 1014.07 1013.90 1013.68 1013.35 1012.82 1012.18
1017.46 1017.80 1017.94 1018.05 1018.27 1018.28 1018.16 1018.16 1018.00 1017.73 1017.36 1016.98 1016.36 1015.59 1014.89 1014.38 1014.19 1013.93 1013.49 1012.96 1012.35 1011.77
1017.52 1017.81 1018.02 1018.23 1018.39 1018.29 1018.28 1018.17 1017.96 1017.62 1017.21 1016.77 1016.12 1015.46 1014.83 1014.25 1013.96 1013.57 1013.05 1012.46 1011.84 1011.31
1017.64 1017.88 1018.15 1018.34 1018.43 1018.38 1018.33 1018.16 1017.85 1017.47 1016.98 1016.52 1015.99 1015.40 1014.77 1014.13 1013.62 1013.11 1012.46 1011.84 1011.23 1010.73
1017.75 1018.00 1018.20 1018.37 1018.48 1018.48 1018.34 1018.10 1017.68 1017.31 1016.81 1016.29 1015.83 1015.30 1014.69 1014.02 1013.26 1012.69 1011.82 1011.19 1010.65 1010.08
Wind_Speed
8 5 5 5 4 4 3 2 1 2 3 4 5 5 5 3 4 4 4 6 5 4
7 8 6 6 5 3 2 2 3 3 4 5 5 5 5 4 5 5 4 6 5 3
7 7 6 6 5 4 3 2 3 4 5 5 5 5 5 5 6 6 4 5 5 4
7 7 6 5 4 4 3 3 3 4 5 6 6 6 5 6 7 6 6 5 5 6
7 6 6 5 4 3 3 3 4 5 5 6 6 6 6 7 7 7 7 6 5 6
6 6 5 4 3 3 3 4 4 5 6 6 7 7 7 6 7 7 7 6 5 6
6 5 4 3 3 3 3 4 5 5 6 6 7 8 7 7 7 7 6 6 5 6
5 4 4 3 3 3 4 4 5 6 7 6 7 7 11 9 7 7 6 6 6 7
5 4 3 3 3 4 5 5 6 6 6 7 7 18 21 18 10 6 6 7 7 7
5 4 3 3 4 5 5 5 6 6 6 7 7 19 21 22 10 8 8 7 8 9
4 4 3 4 4 4 3 5 5 6 7 6 7 18 21 23 7 6 7 9 10 9
4 3 3 3 4 3 4 4 4 5 7 6 7 17 21 18 8 9 9 8 8 8
3 3 2 3 4 2 3 5 5 6 6 10 7 14 20 18 7 8 8 9 8 18
3 3 3 3 3 4 5 5 6 6 6 7 7 8 19 20 10 8 10 10 9 9
Wind_Direction
116 117 115 120 117 118 126 150 121 54 26 12 6 358 356 339 328 325 312 306 302 284
113 110 114 111 113 115 121 116 58 35 10 0 358 346 342 330 316 309 295 298 290 293
115 110 113 112 115 113 99 53 31 6 358 344 335 334 336 318 307 307 299 301 314 297
113 111 111 113 115 107 86 44 15 349 342 334 333 324 322 308 293 293 291 292 294 298
112 114 113 114 106 97 64 17 355 340 332 327 321 313 306 297 300 295 295 290 300 288
117 119 122 116 100 63 30 355 341 337 336 326 318 310 303 289 285 284 285 286 280 281
132 133 128 116 80 42 8 345 342 341 329 323 315 307 292 285 289 292 285 272 272 278
133 128 115 92 52 20 4 353 348 346 333 324 326 323 328 319 304 290 286 281 269 262
127 118 110 73 31 16 7 356 352 343 329 321 327 332 336 334 324 311 293 279 276 273
128 118 89 61 32 13 354 347 336 331 326 315 313 336 338 339 334 325 315 302 293 300
122 106 73 45 22 347 340 339 325 314 309 306 314 338 343 339 342 324 304 297 294 285
117 102 61 21 354 335 328 323 304 297 302 313 305 336 339 338 327 313 304 295 289 290
111 93 42 7 344 305 307 294 301 309 311 315 314 319 331 333 316 308 302 297 291 298
79 53 41 10 340 316 321 313 318 309 303 306 303 297 322 327 323 309 308 309 307 299